Yellowstone Natl Park, WY

11:20 PM MST on February 22, 2017 (GMT -0700)
Yellowstone

Weather History for KP60 - February, 2014

Change the Weather History Date:

Monday, February 24, 2014

  Actual Average Record
Temperature  
Mean Temperature 29 °F 17 °F  
Max Temperature 33 °F 30 °F 43 °F (2012)
Min Temperature 25 °F 4 °F -38 °F (2003)
Degree Days  
Heating Degree Days 36 48  
Month to date heating degree days 1269 1167  
Since 1 July heating degree days 7857 7698  
Cooling Degree Days 0 0  
Month to date cooling degree days 0 0  
Year to date cooling degree days 0 0  
Moisture  
Dew Point 23 °F    
Average Humidity 76    
Maximum Humidity 88    
Minimum Humidity 63    
Precipitation  
Precipitation 0.04 in 0.05 in 0.35 in (2009)
Month to date precipitation 2.77 1.15  
Year to date precipitation 4.68 3.26  
Sea Level Pressure  
Sea Level Pressure 29.98 in    
Wind  
Wind Speed 6 mph (West)    
Max Wind Speed 16 mph    
Max Gust Speed 24 mph    
T = Trace of Precipitation, MM = Missing Value Source: NWS Daily Summary

Daily Weather History Graph

Daily Weather History Graph

Search for Another Location

Airport or City:

Trip Planner

Search our weather history database for the weather conditions in past years. The results will help you decide how hot, cold, wet, or windy it might be!

Date:

Astronomy

Feb. 24, 2014 Rise Set
Actual Time 7:07 AM MST 6:02 PM MST
Civil Twilight 6:37 AM MST 6:32 PM MST
Nautical Twilight 6:04 AM MST 7:06 PM MST
Astronomical Twilight 5:30 AM MST 7:39 PM MST
Moon 3:16 AM MST (2/24) 1:00 PM MST (2/24)
Length of Visible Light 11h 54m
Length of Day
10h 55m
Waning Crescent, 27% of the Moon is Illuminated
Feb 24
Waning Crescent
Mar 1
New
Mar 8
First Quarter
Mar 16
Full
Mar 23
Last Quarter

Hourly Weather History & Observations

Time (MST) Temp. Windchill Dew Point Humidity Pressure Visibility Wind Dir Wind Speed Gust Speed Precip Events Conditions
12:56 AM 26.1 °F 21.9 °F 21.0 °F 81% 29.89 in - Variable 3.5 mph - N/A   Unknown
1:56 AM 26.1 °F 17.6 °F 19.9 °F 78% 29.89 in - West 8.1 mph - N/A   Unknown
2:56 AM 26.1 °F 18.4 °F 19.9 °F 78% 29.89 in - Variable 6.9 mph - N/A   Unknown
3:56 AM 26.1 °F 19.4 °F 19.9 °F 78% 29.91 in - Variable 5.8 mph - N/A   Unknown
4:56 AM 26.1 °F - 19.9 °F 78% 29.92 in - Calm Calm - N/A   Unknown
5:56 AM 26.1 °F - 19.9 °F 78% 29.93 in - Calm Calm - N/A   Unknown
6:56 AM 25.0 °F 18.1 °F 21.0 °F 85% 29.94 in - Variable 5.8 mph - N/A   Unknown
7:56 AM 26.1 °F 21.9 °F 21.0 °F 81% 29.97 in - Variable 3.5 mph - N/A   Unknown
8:56 AM 27.0 °F 19.5 °F 21.9 °F 81% 29.98 in - Variable 6.9 mph - 0.01 in   Unknown
9:56 AM 28.0 °F 20.0 °F 23.0 °F 81% 30.00 in - West 8.1 mph 16.1 mph N/A   Unknown
10:56 AM 28.9 °F 22.8 °F 23.0 °F 78% 30.01 in - Variable 5.8 mph - 0.01 in   Unknown
11:56 AM 28.9 °F 23.9 °F 23.0 °F 78% 30.04 in - Variable 4.6 mph - 0.01 in   Unknown
12:56 PM 30.9 °F 22.8 °F 23.0 °F 72% 30.02 in - West 9.2 mph - N/A   Unknown
1:56 PM 32.0 °F 24.2 °F 21.0 °F 64% 30.02 in - West 9.2 mph - N/A   Unknown
2:56 PM 32.0 °F 28.7 °F 21.9 °F 66% 30.02 in - Variable 3.5 mph - N/A   Unknown
3:56 PM 30.9 °F 24.3 °F 21.0 °F 67% 30.03 in - Variable 6.9 mph - N/A   Unknown
4:56 PM 30.9 °F 27.5 °F 24.1 °F 76% 30.04 in - Variable 3.5 mph - N/A   Unknown
5:56 PM 30.0 °F 26.5 °F 26.1 °F 85% 30.04 in - Variable 3.5 mph - 0.01 in   Unknown
6:56 PM 30.9 °F 27.5 °F 25.0 °F 79% 30.04 in - Variable 3.5 mph - N/A   Unknown
7:56 PM 30.9 °F 25.2 °F 25.0 °F 79% 30.01 in - Variable 5.8 mph - N/A   Unknown
8:56 PM 30.9 °F 21.2 °F 26.1 °F 82% 30.00 in - West 12.7 mph 20.7 mph N/A   Unknown
9:56 PM 30.9 °F 23.5 °F 25.0 °F 79% 29.99 in - West 8.1 mph - N/A   Unknown
10:56 PM 30.9 °F 23.5 °F 24.1 °F 76% 29.97 in - WSW 8.1 mph - N/A   Unknown
11:56 PM 30.9 °F 25.2 °F 25.0 °F 79% 29.97 in - Variable 5.8 mph 17.3 mph N/A   Unknown